Location: Bussy-Saint-Georges
(48.8410°N, 2.7017°E)
Time: 14:43:37
(UTC+00:00)

Cosmos 1174 - Pass Details

Date: 18 October 2021
Orbit: 373 x 1139 km, 66.1° (Epoch: 28 November)

Event Time Altitude Azimuth Distance (km) Brightness Sun altitude
Rises 17:36:11 0° 200° (SSW) 2,451 7.5 -7.7°
Reaches altitude 10° 17:38:26 10° 194° (SSW) 1,504 6.3 -8.1°
Maximum altitude 17:41:31 42° 122° (ESE) 574 3.6 -8.6°
Drops below altitude 10° 17:44:23 10° 49° (NE) 1,395 5.4 -9.1°
Enters shadow 17:44:38 - 48° (NE) 1,496 5.6 -9.1°
